Date String (YYYY-MM-DD hh:mm:ss) UTC,Instrument flags,Ambient pressure (hPa),Sample flow (lpm),Bypass flow (lpm),Sample temperature (°C),Ambient temperature (°C),ASC tube jacket temperature (°C),LED temperature (°C),Box temperature (°C),Sample RH (%),Span deviation,Mass concentration (μg/m³),Mass concentration (μg/m³),Mass concentration (μg/m³)
DateTimeUTC,F1_M11,P_M11,Q1_M11,Q2_M11,T1_M11,T2_M11,T3_M11,T4_M11,T5_M11,U1_M11,ZSPAN_M11,X0_M11,X2_M11,X1_M11
2022-05-06 03:00:00,,0822.7,5.00,0.00,29.9,28.9,00.0,38.8,31.7,11.5,0000.0,0008.29,0003.86,0002.60
2022-05-06 03:01:00,,0822.6,5.00,0.00,29.9,29.0,00.0,38.8,31.7,11.7,0000.0,0008.31,0003.85,0002.59
2022-05-06 03:02:00,,0822.6,4.99,0.00,29.9,29.0,00.0,38.8,31.7,11.6,0000.0,0008.35,0003.85,0002.60
2022-05-06 03:03:00,,0822.7,5.00,0.00,29.9,29.0,00.0,38.8,31.7,11.6,0000.0,0008.34,0003.85,0002.60
2022-05-06 03:04:00,,0822.7,5.00,0.00,29.9,29.1,00.0,38.8,31.8,11.9,0000.0,0008.37,0003.89,0002.63
2022-05-06 03:05:00,,0822.6,4.99,0.00,29.9,29.1,00.0,38.8,31.7,11.1,0000.0,0008.42,0003.91,0002.65
2022-05-06 03:06:00,,0822.6,5.00,0.00,30.0,29.1,00.0,38.8,31.7,10.9,0000.0,0008.35,0003.87,0002.62
2022-05-06 03:07:00,,0822.7,5.00,0.00,30.0,29.1,00.0,38.8,31.7,11.2,0000.0,0008.17,0003.81,0002.60
2022-05-06 03:08:00,,0822.7,5.01,0.00,30.0,29.2,00.0,38.8,31.7,11.4,0000.0,0008.29,0003.84,0002.63
2022-05-06 03:09:00,,0822.6,4.98,0.00,30.0,29.1,00.0,38.8,31.7,11.8,0000.0,0008.33,0003.87,0002.64
2022-05-06 03:10:00,,0822.6,5.01,0.00,30.0,29.1,00.0,38.9,31.8,11.0,0000.0,0008.21,0003.87,0002.65
2022-05-06 03:11:00,,0822.6,5.03,0.00,30.0,29.2,00.0,38.9,31.8,10.9,0000.0,0008.22,0003.89,0002.65
2022-05-06 03:12:00,,0822.6,5.00,0.00,30.0,29.2,00.0,38.9,31.8,11.6,0000.0,0008.27,0003.91,0002.65
2022-05-06 03:13:00,,0822.6,4.99,0.00,30.0,29.2,00.0,38.9,31.8,12.4,0000.0,0008.29,0003.90,0002.65
2022-05-06 03:14:00,,0822.6,5.01,0.00,30.0,29.2,00.0,38.9,31.8,11.8,0000.0,0008.42,0003.89,0002.63
2022-05-06 03:15:00,,0822.5,5.01,0.00,30.1,29.2,00.0,38.9,31.8,11.5,0000.0,0008.83,0003.82,0002.59
2022-05-06 03:16:00,,0822.6,4.99,0.00,30.1,29.2,00.0,38.9,31.8,11.4,0000.0,0008.84,0003.79,0002.54
2022-05-06 03:17:00,,0822.6,5.01,0.00,30.1,29.2,00.0,38.9,31.8,11.4,0000.0,0009.12,0003.84,0002.53
2022-05-06 03:18:00,,0822.6,4.99,0.00,30.1,29.2,00.0,38.9,31.8,11.4,0000.0,0009.07,0003.84,0002.52
2022-05-06 03:19:00,,0822.6,5.01,0.00,30.1,29.2,00.0,39.0,31.8,11.5,0000.0,0009.08,0003.82,0002.49
2022-05-06 03:20:00,,0822.6,5.01,0.00,30.1,29.2,00.0,39.0,31.8,12.6,0000.0,0008.99,0003.79,0002.46
2022-05-06 03:21:00,,0822.6,5.00,0.00,30.1,29.2,00.0,39.0,31.8,12.6,0000.0,0009.02,0003.79,0002.45
2022-05-06 03:22:00,,0822.7,5.00,0.00,30.1,29.2,00.0,39.0,31.9,12.3,0000.0,0009.03,0003.78,0002.45
2022-05-06 03:23:00,,0822.7,5.01,0.00,30.1,29.2,00.0,39.0,31.9,11.7,0000.0,0009.13,0003.81,0002.46
2022-05-06 03:24:00,,0822.7,4.99,0.00,30.1,29.2,00.0,39.0,31.9,11.9,0000.0,0009.09,0003.80,0002.45
2022-05-06 03:25:00,,0822.7,5.00,0.00,30.1,29.3,00.0,39.0,31.9,11.9,0000.0,0008.95,0003.78,0002.46
2022-05-06 03:26:00,,0822.8,5.00,0.00,30.1,29.3,00.0,39.0,31.9,12.2,0000.0,0008.31,0003.79,0002.49
2022-05-06 03:27:00,,0822.7,4.99,0.00,30.2,29.3,00.0,39.1,31.9,12.1,0000.0,0008.34,0003.82,0002.52
2022-05-06 03:28:00,,0822.9,5.01,0.00,30.2,29.3,00.0,39.1,31.9,12.0,0000.0,0008.08,0003.79,0002.54
2022-05-06 03:29:00,,0822.8,5.00,0.00,30.2,29.3,00.0,39.1,31.9,11.8,0000.0,0008.24,0003.82,0002.57
2022-05-06 03:30:00,,0822.8,4.99,0.00,30.2,29.3,00.0,39.1,31.9,11.6,0000.0,0008.24,0003.82,0002.57
2022-05-06 03:31:00,,0822.9,5.01,0.00,30.2,29.3,00.0,39.1,32.0,11.8,0000.0,0008.39,0003.86,0002.58
2022-05-06 03:32:00,,0822.9,4.99,0.00,30.2,29.3,00.0,39.1,32.0,12.1,0000.0,0008.41,0003.88,0002.59
2022-05-06 03:33:00,,0822.9,5.01,0.00,30.2,29.3,00.0,39.1,31.9,12.3,0000.0,0008.66,0003.95,0002.58
2022-05-06 03:34:00,,0822.8,5.00,0.00,30.2,29.3,00.0,39.1,31.9,12.1,0000.0,0008.77,0003.97,0002.56
2022-05-06 03:35:00,,0822.8,5.00,0.00,30.2,29.3,00.0,39.1,31.9,11.5,0000.0,0008.79,0003.97,0002.54
2022-05-06 03:36:00,,0822.8,5.02,0.00,30.2,29.3,00.0,39.1,31.9,11.5,0000.0,0008.74,0003.93,0002.51
2022-05-06 03:37:00,,0822.8,4.99,0.00,30.2,28.1,00.0,39.1,31.6,11.5,0000.0,0008.81,0003.89,0002.49
2022-05-06 03:38:00,,0822.8,5.01,0.00,30.0,25.9,00.0,39.1,31.2,11.6,0000.0,0009.05,0003.88,0002.47
2022-05-06 03:39:00,,0822.8,4.99,0.00,29.9,25.8,00.0,39.0,31.2,12.1,0000.0,0009.02,0003.87,0002.46
2022-05-06 03:40:00,,0822.9,5.00,0.00,29.8,26.1,00.0,38.9,31.2,11.9,0000.0,0008.90,0003.85,0002.45
2022-05-06 03:41:00,,0822.9,5.01,0.00,29.7,26.6,00.0,38.9,31.2,11.8,0000.0,0008.82,0003.86,0002.45
2022-05-06 03:42:00,,0822.9,4.99,0.00,29.7,27.1,00.0,38.8,31.3,11.7,0000.0,0008.96,0003.79,0002.43
2022-05-06 03:43:00,,0822.9,5.00,0.00,29.7,27.4,00.0,38.8,31.3,11.9,0000.0,0009.06,0003.73,0002.41
2022-05-06 03:44:00,,0822.9,5.01,0.00,29.7,27.7,00.0,38.8,31.4,12.8,0000.0,0008.80,0003.65,0002.40
2022-05-06 03:45:00,,0823.0,4.99,0.00,29.7,28.0,00.0,38.8,31.4,12.6,0000.0,0008.53,0003.61,0002.42
2022-05-06 03:46:00,,0823.0,5.00,0.00,29.8,28.2,00.0,38.8,31.4,12.3,0000.0,0008.48,0003.62,0002.44
2022-05-06 03:47:00,,0822.9,5.00,0.00,29.8,28.3,00.0,38.8,31.4,12.1,0000.0,0008.44,0003.66,0002.46
2022-05-06 03:48:00,,0823.0,4.99,0.00,29.8,28.4,00.0,38.7,31.5,12.2,0000.0,0008.47,0003.71,0002.46
2022-05-06 03:49:00,,0822.9,5.01,0.00,29.8,28.5,00.0,38.7,31.5,12.3,0000.0,0008.26,0003.75,0002.46
2022-05-06 03:50:00,,0823.0,5.00,0.00,29.8,28.6,00.0,38.7,31.5,11.9,0000.0,0008.30,0003.78,0002.45
2022-05-06 03:51:00,,0823.0,5.00,0.00,29.8,28.7,00.0,38.8,31.5,11.9,0000.0,0008.48,0003.78,0002.44
2022-05-06 03:52:00,,0822.9,5.00,0.00,29.8,28.7,00.0,38.8,31.5,11.6,0000.0,0008.78,0003.76,0002.43
2022-05-06 03:53:00,,0823.0,4.98,0.00,29.8,28.8,00.0,38.8,31.5,11.6,0000.0,0008.46,0003.75,0002.43
2022-05-06 03:54:00,,0822.9,5.01,0.00,29.8,28.8,00.0,38.8,31.6,11.6,0000.0,0009.00,0003.78,0002.42
2022-05-06 03:55:00,,0822.8,4.99,0.00,29.9,28.8,00.0,38.8,31.6,12.7,0000.0,0009.07,0003.78,0002.42
2022-05-06 03:56:00,,0822.8,5.01,0.00,29.9,28.9,00.0,38.8,31.7,12.2,0000.0,0009.22,0003.76,0002.40
2022-05-06 03:57:00,,0822.8,4.99,0.00,29.9,28.9,00.0,38.8,31.7,12.1,0000.0,0009.21,0003.74,0002.39
2022-05-06 03:58:00,,0822.8,5.00,0.00,29.9,28.9,00.0,38.8,31.6,12.2,0000.0,0009.21,0003.73,0002.40
2022-05-06 03:59:00,,0822.8,5.02,0.00,29.9,28.9,00.0,38.8,31.6,12.2,0000.0,0009.18,0003.71,0002.39
